#�ϑ�����,���ϕ���,���ϕ���,�ő啗��,�ő啗����������,�ő�u�ԕ���,�ő�u�ԕ�����������
#(�N����),(m/s)   ,(16����),(m/s)   ,(16����)        ,(m/s)       ,(16����)            
2016/2/21 0:01,4.5,15,4.6,15,7.4,14
2016/2/21 0:02,4.5,16,4.5,15,7.6,16
2016/2/21 0:03,4.7,16,4.7,15,10,16
2016/2/21 0:04,5.1,16,5.1,16,9.3,15
2016/2/21 0:05,5.3,16,5.3,16,8.7,16
2016/2/21 0:06,5.1,16,5.2,16,7.2,16
2016/2/21 0:07,5.2,16,5.2,16,9.4,1
2016/2/21 0:08,5.2,16,5.3,16,12.1,16
2016/2/21 0:09,5.3,16,5.3,16,10.5,16
2016/2/21 0:10,5.2,16,5.3,16,8.2,16
2016/2/21 0:11,5.3,16,5.3,16,9.5,15
2016/2/21 0:12,5.4,16,5.5,16,10.5,16
2016/2/21 0:13,5.3,16,5.4,16,9.1,16
2016/2/21 0:14,5.4,16,5.4,16,10.7,16
2016/2/21 0:15,5.4,16,5.5,16,9,16
2016/2/21 0:16,5.6,16,5.7,16,9.5,16
2016/2/21 0:17,5.4,16,5.6,16,8.5,16
2016/2/21 0:18,5.5,16,5.5,16,7.9,15
2016/2/21 0:19,5.5,16,5.5,16,8.3,15
2016/2/21 0:20,5.5,16,5.6,16,11.7,16
2016/2/21 0:21,5.5,16,5.5,16,10.9,1
2016/2/21 0:22,5.8,16,5.8,16,14.3,16
2016/2/21 0:23,5.8,16,5.9,16,11.7,16
2016/2/21 0:24,6.1,16,6.1,16,18.3,16
2016/2/21 0:25,6,16,6.1,16,13.2,16
2016/2/21 0:26,6.2,16,6.2,16,11.3,16
2016/2/21 0:27,6.6,16,6.6,16,15.3,15
2016/2/21 0:28,6.7,16,6.7,16,10.1,1
2016/2/21 0:29,6.8,16,6.9,16,11,16
2016/2/21 0:30,6.9,16,7,16,13.9,16
2016/2/21 0:31,6.8,16,6.9,16,9.2,16
2016/2/21 0:32,6.6,16,6.9,16,9.9,15
2016/2/21 0:33,7.1,16,7.1,16,16.2,1
2016/2/21 0:34,6.8,16,7.2,16,15.1,16
2016/2/21 0:35,7,16,7,16,13.1,16
2016/2/21 0:36,6.8,16,7.1,16,8.6,16
2016/2/21 0:37,6.9,16,7,16,16.5,15
2016/2/21 0:38,7.1,16,7.2,16,12.1,14
2016/2/21 0:39,7.1,16,7.1,16,10.8,16
2016/2/21 0:40,7,16,7.1,16,9.8,14
2016/2/21 0:41,7,16,7,16,10.8,14
2016/2/21 0:42,7.2,16,7.2,16,13.9,14
2016/2/21 0:43,7,15,7.2,16,13.1,15
2016/2/21 0:44,7,15,7,16,12.2,15
2016/2/21 0:45,7,15,7,16,14.5,1
2016/2/21 0:46,7.3,16,7.3,16,12.2,16
2016/2/21 0:47,7.1,16,7.3,16,10.8,1
2016/2/21 0:48,7,16,7.2,16,14.8,15
2016/2/21 0:49,7.2,16,7.2,16,12.8,16
2016/2/21 0:50,7.2,16,7.2,16,9.7,16
2016/2/21 0:51,7.5,16,7.5,16,14.8,16
2016/2/21 0:52,7.1,16,7.5,16,8.3,15
2016/2/21 0:53,7,16,7.1,16,11.8,16
2016/2/21 0:54,6.9,16,6.9,16,12.7,16
2016/2/21 0:55,6.7,16,7,16,13.4,16
2016/2/21 0:56,6.4,16,6.7,16,13.2,1
2016/2/21 0:57,6.4,16,6.4,16,15.3,16
2016/2/21 0:58,6.7,16,6.7,16,15.3,16
2016/2/21 0:59,6.7,16,6.7,16,13.3,1
2016/2/21 1:00,6.9,16,6.9,16,16.7,15
2016/2/21 1:01,7.2,16,7.2,16,19.2,16
2016/2/21 1:02,7.2,16,7.2,16,13.4,16
2016/2/21 1:03,7.3,16,7.4,16,9.9,15
2016/2/21 1:04,7.4,16,7.4,16,9.4,14
2016/2/21 1:05,7.5,16,7.5,16,16.1,16
2016/2/21 1:06,7.7,16,7.8,16,14.7,15
2016/2/21 1:07,7.3,16,7.7,16,7,15
2016/2/21 1:08,6.9,16,7.2,16,11.3,1
2016/2/21 1:09,6.5,16,6.9,16,7.5,1
2016/2/21 1:10,6.5,16,6.7,16,13.3,1
2016/2/21 1:11,6.4,16,6.5,16,10.5,16
2016/2/21 1:12,6.2,16,6.4,16,9.3,14
2016/2/21 1:13,6,16,6.1,16,8.9,15
2016/2/21 1:14,5.8,16,6,16,8.6,13
2016/2/21 1:15,5.4,16,5.8,16,9.1,15
2016/2/21 1:16,5.6,16,5.6,16,11.4,15
2016/2/21 1:17,5.8,16,5.8,16,9,15
2016/2/21 1:18,5.7,16,5.9,16,9.3,15
2016/2/21 1:19,5.5,16,5.7,16,6.4,14
2016/2/21 1:20,5.1,16,5.5,16,7.2,2
2016/2/21 1:21,5,16,5.1,16,11.8,16
2016/2/21 1:22,5.4,16,5.4,16,10.6,16
2016/2/21 1:23,5.4,16,5.5,16,10.8,14
2016/2/21 1:24,5.5,16,5.5,16,8.9,14
2016/2/21 1:25,5.5,16,5.5,16,9.5,14
2016/2/21 1:26,5.3,16,5.5,16,10.1,15
2016/2/21 1:27,5.4,16,5.5,16,12.8,16
2016/2/21 1:28,5.5,16,5.5,16,12.5,15
2016/2/21 1:29,6,16,6,16,11.8,1
2016/2/21 1:30,6.5,16,6.5,16,15.7,16
2016/2/21 1:31,6.6,16,6.6,16,12.7,14
2016/2/21 1:32,6.6,16,6.6,16,11.5,16
2016/2/21 1:33,6.6,16,6.7,16,10.7,16
2016/2/21 1:34,7,16,7,16,19,1
2016/2/21 1:35,7.5,16,7.5,16,14.3,16
2016/2/21 1:36,7.6,16,7.6,16,13.2,16
2016/2/21 1:37,7.7,16,7.7,16,10.9,16
2016/2/21 1:38,7.9,16,7.9,16,13.5,1
2016/2/21 1:39,7.7,16,7.9,16,10.6,16
2016/2/21 1:40,7.5,16,7.6,16,12.8,16
2016/2/21 1:41,7.1,16,7.5,16,9.9,15
2016/2/21 1:42,7.1,16,7.1,16,13.6,15
2016/2/21 1:43,7.2,16,7.3,16,15.9,15
2016/2/21 1:44,7.2,16,7.3,16,13.6,16
2016/2/21 1:45,6.6,16,7.1,16,11.4,15
2016/2/21 1:46,6.7,16,6.7,16,12.7,16
2016/2/21 1:47,6.4,16,6.7,16,8.2,16
2016/2/21 1:48,6.1,16,6.4,16,13.1,16
2016/2/21 1:49,6.1,16,6.1,16,10.5,15
2016/2/21 1:50,6.2,16,6.3,16,12.8,16
2016/2/21 1:51,6.2,16,6.2,16,7.7,16
2016/2/21 1:52,6.1,16,6.2,16,10,15
2016/2/21 1:53,6,16,6.1,16,12.2,2
2016/2/21 1:54,5.9,16,6.1,16,11.8,16
2016/2/21 1:55,6.2,16,6.2,16,10.9,16
2016/2/21 1:56,5.6,16,6.1,16,6.8,1
2016/2/21 1:57,5.5,16,5.6,16,7.5,1
2016/2/21 1:58,5.7,16,5.7,16,12.1,16
2016/2/21 1:59,5.8,16,5.9,16,11.1,16
2016/2/21 2:00,5.5,16,5.8,16,10.5,15
2016/2/21 2:01,5.5,16,5.5,16,9.3,15
2016/2/21 2:02,5.3,16,5.6,16,8.5,1
2016/2/21 2:03,5.1,16,5.3,16,7.9,16
2016/2/21 2:04,4.7,16,5,16,6.8,16
2016/2/21 2:05,4.3,16,4.7,16,7.9,14
2016/2/21 2:06,4.3,16,4.3,16,6,14
2016/2/21 2:07,4.5,16,4.5,16,10,16
2016/2/21 2:08,4.4,16,4.6,16,10.7,15
2016/2/21 2:09,4.2,16,4.4,16,8.9,16
2016/2/21 2:10,4.5,16,4.5,16,10.9,16
2016/2/21 2:11,4.5,16,4.6,16,10.3,15
2016/2/21 2:12,4.3,16,4.4,16,4.7,14
2016/2/21 2:13,4.4,16,4.4,16,8.6,15
2016/2/21 2:14,4.5,16,4.5,16,7.2,16
2016/2/21 2:15,4.7,16,4.7,16,6.5,1
2016/2/21 2:16,4.8,16,4.8,16,7.8,16
2016/2/21 2:17,4.9,16,4.9,16,10,16
2016/2/21 2:18,4.8,16,4.8,16,8.7,15
2016/2/21 2:19,4.8,16,4.9,16,8.7,16
2016/2/21 2:20,4.3,16,4.8,16,4.9,1
2016/2/21 2:21,4.1,16,4.3,16,3.9,16
2016/2/21 2:22,4.3,16,4.3,16,8.1,16
2016/2/21 2:23,4.2,16,4.3,16,7.2,16
2016/2/21 2:24,4.5,16,4.5,16,12.2,15
2016/2/21 2:25,4.7,16,4.7,16,13.8,15
2016/2/21 2:26,4.6,16,4.7,16,5,16
2016/2/21 2:27,4.1,16,4.6,16,1.9,14
2016/2/21 2:28,3.7,16,4.1,16,1.8,15
2016/2/21 2:29,3.4,15,3.6,16,4.8,14
2016/2/21 2:30,3.4,15,3.5,16,7.5,3
2016/2/21 2:31,3.7,16,3.7,16,10.3,16
2016/2/21 2:32,3.9,15,3.9,16,10.1,15
2016/2/21 2:33,4.1,15,4.1,16,10.5,16
2016/2/21 2:34,3.7,15,4,16,5.4,14
2016/2/21 2:35,3.2,15,3.6,16,3.2,1
2016/2/21 2:36,3,16,3.2,16,4.2,1
2016/2/21 2:37,3.4,16,3.4,16,8.2,14
2016/2/21 2:38,4,16,4,15,13.9,2
2016/2/21 2:39,4.1,16,4.1,15,11,15
2016/2/21 2:40,4.2,16,4.2,16,5.5,12
2016/2/21 2:41,4,15,4.2,16,6.7,10
2016/2/21 2:42,3.7,15,4,16,5.2,8
2016/2/21 2:43,3.6,16,3.7,16,10.7,15
2016/2/21 2:44,3.6,16,3.6,16,8.2,16
2016/2/21 2:45,3.7,16,3.7,16,5.6,2
2016/2/21 2:46,3.7,16,3.7,16,3.2,4
2016/2/21 2:47,3.9,16,4,16,10.5,16
2016/2/21 2:48,3.5,16,3.9,16,5.6,16
2016/2/21 2:49,3.4,16,3.5,16,5.6,7
2016/2/21 2:50,3.4,16,3.4,16,5,9
2016/2/21 2:51,3.2,1,3.4,15,1.8,10
2016/2/21 2:52,3,1,3.2,16,3.7,1
2016/2/21 2:53,2.8,1,3,16,3.2,1
2016/2/21 2:54,2.6,1,2.7,16,4.1,15
2016/2/21 2:55,2.7,16,2.7,16,7.9,15
2016/2/21 2:56,2.8,16,2.8,16,6.4,14
2016/2/21 2:57,2.5,16,2.8,16,6.8,3
2016/2/21 2:58,2.6,16,2.6,16,7.2,16
2016/2/21 2:59,2.7,1,2.7,16,5.8,2
2016/2/21 3:00,2.7,1,2.7,16,6.8,16
2016/2/21 3:01,3.3,1,3.3,1,13.8,1
2016/2/21 3:02,3.8,1,3.8,1,10.1,1
2016/2/21 3:03,4.1,16,4.1,16,7.9,1
2016/2/21 3:04,4.3,16,4.3,16,7.6,1
2016/2/21 3:05,4.5,1,4.5,16,9.8,1
2016/2/21 3:06,4.7,16,4.7,1,8.9,1
2016/2/21 3:07,4.7,16,4.7,1,6,16
2016/2/21 3:08,4.7,16,4.7,1,6.2,16
2016/2/21 3:09,4.8,16,4.8,16,7.8,16
2016/2/21 3:10,4.8,16,4.9,16,5.8,16
2016/2/21 3:11,4.5,16,4.8,16,5.4,14
2016/2/21 3:12,4.2,16,4.5,16,6.4,16
2016/2/21 3:13,4.1,16,4.2,16,7.6,16
2016/2/21 3:14,3.8,16,4,16,2.2,13
2016/2/21 3:15,3.4,16,3.8,16,3.1,12
2016/2/21 3:16,3.1,16,3.4,16,2,8
2016/2/21 3:17,3,15,3,16,7.5,15
2016/2/21 3:18,3,15,3.1,16,7.9,14
2016/2/21 3:19,2.7,15,3,16,3.7,12
2016/2/21 3:20,2.6,15,2.7,16,6.2,16
2016/2/21 3:21,2.7,15,2.7,16,9.8,15
2016/2/21 3:22,2.9,15,2.9,16,13.6,15
2016/2/21 3:23,2.9,15,3,16,7.1,16
2016/2/21 3:24,3.2,15,3.2,16,9.7,16
2016/2/21 3:25,3.5,16,3.5,16,7.7,15
2016/2/21 3:26,4.1,15,4.1,15,12.5,15
2016/2/21 3:27,4.2,15,4.3,15,8.5,15
2016/2/21 3:28,3.9,16,4.1,15,5.2,2
2016/2/21 3:29,4.1,16,4.1,15,6.7,15
2016/2/21 3:30,4.3,16,4.3,15,9.5,15
2016/2/21 3:31,4.4,16,4.4,16,8.5,15
2016/2/21 3:32,3.9,16,4.3,16,4.1,15
2016/2/21 3:33,3.7,16,3.9,16,4.2,1
2016/2/21 3:34,3.7,16,3.8,16,8.3,2
2016/2/21 3:35,3.7,16,3.8,16,9.7,16
2016/2/21 3:36,3.5,16,3.7,16,7.9,16
2016/2/21 3:37,3.6,16,3.6,16,7.9,14
2016/2/21 3:38,3.8,16,3.9,16,7.2,13
2016/2/21 3:39,3.9,16,3.9,16,8.2,16
2016/2/21 3:40,4.2,16,4.2,16,9.3,16
2016/2/21 3:41,4.1,16,4.1,16,7,15
2016/2/21 3:42,4.7,16,4.7,16,11,16
2016/2/21 3:43,5.3,16,5.3,16,13.3,16
2016/2/21 3:44,5.4,16,5.4,16,9,15
2016/2/21 3:45,5.5,16,5.5,16,9.7,1
2016/2/21 3:46,5.6,16,5.6,16,11,2
2016/2/21 3:47,5.8,16,5.8,16,11,14
2016/2/21 3:48,6.3,16,6.3,16,14.8,15
2016/2/21 3:49,6,16,6.3,16,4.9,16
2016/2/21 3:50,5.5,16,6,16,3.2,15
2016/2/21 3:51,5.3,16,5.5,16,6.4,1
2016/2/21 3:52,4.7,16,5.3,16,4.7,3
2016/2/21 3:53,4.4,16,4.7,16,8.7,16
2016/2/21 3:54,4.3,16,4.4,16,10.9,16
2016/2/21 3:55,4.4,16,4.4,16,10.8,15
2016/2/21 3:56,4.4,16,4.5,16,11.3,15
2016/2/21 3:57,4.1,16,4.4,16,9.9,15
2016/2/21 3:58,4.1,16,4.1,16,12.6,15
2016/2/21 3:59,4.6,16,4.6,16,14.5,15
2016/2/21 4:00,5.1,16,5.1,16,10.7,16
2016/2/21 4:01,5.6,16,5.6,16,13,16
2016/2/21 4:02,6.1,16,6.1,16,10.5,16
2016/2/21 4:03,6.4,15,6.4,15,11.6,15
2016/2/21 4:04,6.6,15,6.6,15,11.5,1
2016/2/21 4:05,6.7,15,6.8,15,12.4,15
2016/2/21 4:06,7,15,7,15,15.2,16
2016/2/21 4:07,7.3,15,7.3,15,12.5,14
2016/2/21 4:08,7.1,15,7.3,15,12.2,16
2016/2/21 4:09,7.1,15,7.1,15,11.1,15
2016/2/21 4:10,7.2,15,7.2,15,11.6,16
2016/2/21 4:11,7.1,15,7.2,15,11.6,15
2016/2/21 4:12,6.9,16,7.2,15,10.9,16
2016/2/21 4:13,6.7,16,6.8,15,10.3,1
2016/2/21 4:14,6.7,16,6.9,15,12.5,1
2016/2/21 4:15,6.2,16,6.7,15,8.5,15
2016/2/21 4:16,5.9,16,6.3,15,9.1,16
2016/2/21 4:17,5.7,16,5.9,15,9.4,1
2016/2/21 4:18,5.4,16,5.7,15,9.5,16
2016/2/21 4:19,5.2,16,5.4,15,7.7,14
2016/2/21 4:20,4.9,16,5.2,15,6.3,15
2016/2/21 4:21,4.8,16,4.8,15,9.7,16
2016/2/21 4:22,4.8,16,4.9,16,8.6,15
2016/2/21 4:23,4.9,16,4.9,16,8.6,15
2016/2/21 4:24,4.7,16,4.9,16,9.1,15
2016/2/21 4:25,4.5,16,4.6,16,4.9,16
2016/2/21 4:26,4.5,16,4.5,16,10.3,16
2016/2/21 4:27,4.5,16,4.5,16,8.5,14
2016/2/21 4:28,4.5,16,4.5,16,7.5,16
2016/2/21 4:29,4.6,16,4.7,16,8.4,16
2016/2/21 4:30,5,16,5,16,10.2,1
2016/2/21 4:31,4.9,16,5,16,9.8,16
2016/2/21 4:32,5,16,5,16,13.1,16
2016/2/21 4:33,4.9,16,5.1,16,10.6,15
2016/2/21 4:34,5.2,16,5.2,16,9.5,1
2016/2/21 4:35,5.5,16,5.5,16,10,15
2016/2/21 4:36,5.5,16,5.6,16,10.7,16
2016/2/21 4:37,5.4,16,5.5,16,6.4,16
2016/2/21 4:38,5.3,16,5.4,16,7.8,16
2016/2/21 4:39,5,16,5.3,16,6.9,16
2016/2/21 4:40,4.9,16,5,16,7.6,1
2016/2/21 4:41,4.6,16,4.8,16,5.5,1
2016/2/21 4:42,4.5,16,4.6,16,6,1
2016/2/21 4:43,4.3,16,4.4,16,6.4,13
2016/2/21 4:44,4.2,16,4.3,16,9.3,15
2016/2/21 4:45,4.4,16,4.4,16,12.4,15
2016/2/21 4:46,4.3,16,4.4,16,11.4,15
2016/2/21 4:47,4.6,16,4.6,16,11.3,15
2016/2/21 4:48,4.8,16,4.8,16,12.5,15
2016/2/21 4:49,5.1,15,5.1,16,10.7,15
2016/2/21 4:50,5.2,15,5.2,15,10.3,15
2016/2/21 4:51,5.6,15,5.6,15,14.2,15
2016/2/21 4:52,5.8,15,5.8,15,12.7,15
2016/2/21 4:53,5.9,15,5.9,15,8.6,16
2016/2/21 4:54,6.1,15,6.1,15,11.6,15
2016/2/21 4:55,6,15,6.1,15,9.1,16
2016/2/21 4:56,6.3,16,6.3,16,12.5,16
2016/2/21 4:57,6.5,15,6.6,16,12.1,16
2016/2/21 4:58,6.4,16,6.5,16,10.7,15
2016/2/21 4:59,6.5,15,6.5,16,9.8,16
2016/2/21 5:00,6.5,16,6.5,16,10.9,16
2016/2/21 5:01,6.7,16,6.7,16,13.6,16
2016/2/21 5:02,6.8,16,6.8,16,11.3,16
2016/2/21 5:03,6.7,16,6.8,16,7.8,16
2016/2/21 5:04,6.5,16,6.8,16,9.2,15
2016/2/21 5:05,6.7,16,6.7,16,12.5,16
2016/2/21 5:06,6.5,16,6.7,16,8.7,15
2016/2/21 5:07,6.4,16,6.5,16,10.5,16
2016/2/21 5:08,6.2,16,6.4,16,8.4,1
2016/2/21 5:09,6.1,16,6.2,16,9.4,14
2016/2/21 5:10,5.9,16,6.1,16,9.2,16
2016/2/21 5:11,5.6,16,5.9,16,9.4,14
2016/2/21 5:12,5.4,16,5.6,16,10.5,14
2016/2/21 5:13,5.8,15,5.8,16,12.1,16
2016/2/21 5:14,5.6,15,5.8,16,9.5,15
2016/2/21 5:15,5.2,16,5.6,16,7.9,16
2016/2/21 5:16,5.2,16,5.3,16,11.1,15
2016/2/21 5:17,5.2,16,5.2,16,12.1,1
2016/2/21 5:18,5.5,16,5.5,16,11.7,16
2016/2/21 5:19,5.3,16,5.5,16,8.2,15
2016/2/21 5:20,5.2,16,5.3,16,8.4,1
2016/2/21 5:21,5.2,16,5.3,15,8.9,16
2016/2/21 5:22,5.2,16,5.3,15,10.3,16
2016/2/21 5:23,4.9,16,5.2,15,7.8,15
2016/2/21 5:24,5,16,5,16,7.9,1
2016/2/21 5:25,5.1,16,5.1,16,7.5,16
2016/2/21 5:26,5,16,5.1,16,7.9,16
2016/2/21 5:27,4.9,16,5,16,7.7,16
2016/2/21 5:28,4.9,16,5,16,11.3,16
2016/2/21 5:29,5.3,16,5.3,16,13,16
2016/2/21 5:30,5.4,16,5.5,16,9.4,15
2016/2/21 5:31,5.5,16,5.5,16,11.3,16
2016/2/21 5:32,5.2,16,5.5,16,8.3,1
2016/2/21 5:33,5.3,16,5.4,16,8.2,16
2016/2/21 5:34,5.5,16,5.5,16,12.2,15
2016/2/21 5:35,5.8,16,5.8,16,9.4,1
2016/2/21 5:36,5.9,16,5.9,16,12.1,15
2016/2/21 5:37,5.8,16,6,16,6,16
2016/2/21 5:38,5.8,16,5.8,16,9.7,16
2016/2/21 5:39,5.6,16,5.8,16,11.3,16
2016/2/21 5:40,5.5,16,5.6,16,5.6,15
2016/2/21 5:41,5.3,15,5.5,16,8.6,16
2016/2/21 5:42,5.5,15,5.5,16,8.7,16
2016/2/21 5:43,5.5,15,5.5,16,8.4,15
2016/2/21 5:44,5,15,5.5,16,8.1,15
2016/2/21 5:45,5.1,15,5.1,16,11.1,16
2016/2/21 5:46,4.9,15,5.1,16,9.7,15
2016/2/21 5:47,5,15,5,16,8.6,16
2016/2/21 5:48,4.8,15,5,16,9.4,15
2016/2/21 5:49,4.7,15,4.7,16,9.9,15
2016/2/21 5:50,4.9,15,4.9,16,9,16
2016/2/21 5:51,5,15,5,15,9.8,15
2016/2/21 5:52,4.9,15,5,15,7.4,15
2016/2/21 5:53,4.6,15,4.8,15,5.2,16
2016/2/21 5:54,4.7,15,4.7,15,6.3,15
2016/2/21 5:55,4.3,15,4.7,15,7.1,16
2016/2/21 5:56,4.6,15,4.6,15,12.6,15
2016/2/21 5:57,4.5,15,4.6,15,7.2,1
2016/2/21 5:58,4.4,15,4.5,15,5.2,16
2016/2/21 5:59,4.2,15,4.4,15,4.7,1
2016/2/21 6:00,4,15,4.2,15,5.2,1
2016/2/21 6:01,3.8,16,3.9,15,7.7,15
2016/2/21 6:02,4.1,16,4.1,15,8.6,15
2016/2/21 6:03,4.2,16,4.2,15,6.4,16
2016/2/21 6:04,4.2,16,4.2,15,5.7,16
2016/2/21 6:05,4.2,16,4.3,15,6.8,15
2016/2/21 6:06,3.8,16,4.2,15,4.3,15
2016/2/21 6:07,3.5,16,3.7,15,3.2,16
2016/2/21 6:08,3.4,16,3.5,15,4.2,15
2016/2/21 6:09,3.3,16,3.4,16,4.3,13
2016/2/21 6:10,3.2,16,3.3,16,3.9,15
2016/2/21 6:11,3.1,16,3.2,16,4.4,15
2016/2/21 6:12,2.7,16,3.1,16,4.2,15
2016/2/21 6:13,2.6,16,2.7,16,3.9,1
2016/2/21 6:14,2.6,16,2.6,16,6.7,15
2016/2/21 6:15,2.5,15,2.6,16,6.3,14
2016/2/21 6:16,2.6,15,2.7,16,7.5,14
2016/2/21 6:17,2.7,15,2.7,16,5.4,16
2016/2/21 6:18,2.9,15,2.9,16,7,15
2016/2/21 6:19,3.3,15,3.3,16,9,16
2016/2/21 6:20,3.3,15,3.3,15,6.3,16
2016/2/21 6:21,3.4,15,3.4,15,6.5,1
2016/2/21 6:22,3.5,15,3.5,15,6.4,16
2016/2/21 6:23,3.6,15,3.6,15,4.2,16
2016/2/21 6:24,3.5,15,3.6,15,6.9,16
2016/2/21 6:25,3.5,15,3.5,15,4.3,15
2016/2/21 6:26,3.2,16,3.4,15,2.9,16
2016/2/21 6:27,3.2,16,3.2,15,3.2,16
2016/2/21 6:28,3.2,16,3.2,15,5.4,15
2016/2/21 6:29,2.9,16,3.2,15,6,16
2016/2/21 6:30,3.1,15,3.1,15,7.7,14
2016/2/21 6:31,3.2,16,3.2,15,6.5,1
2016/2/21 6:32,3.3,15,3.3,15,11.1,15
2016/2/21 6:33,3.6,16,3.6,15,10.6,16
2016/2/21 6:34,3.6,16,3.6,16,6.2,1
2016/2/21 6:35,3.6,16,3.6,16,4.4,14
2016/2/21 6:36,3.7,16,3.7,16,4.9,16
2016/2/21 6:37,3.8,16,3.8,16,4.7,16
2016/2/21 6:38,3.7,16,3.8,16,3.9,16
2016/2/21 6:39,3.7,16,3.7,16,5.1,16
2016/2/21 6:40,3.5,16,3.6,16,5.5,15
2016/2/21 6:41,3.6,16,3.6,16,6.1,16
2016/2/21 6:42,3.4,16,3.6,16,5.4,2
2016/2/21 6:43,3.2,16,3.3,16,4.4,15
2016/2/21 6:44,3.1,16,3.1,16,3.7,16
2016/2/21 6:45,3,15,3,16,2.7,14
2016/2/21 6:46,2.9,15,3,16,2,12
2016/2/21 6:47,2.6,15,2.8,16,1.6,13
2016/2/21 6:48,2.6,15,2.6,16,2.2,12
2016/2/21 6:49,2.4,14,2.5,16,2.2,13
2016/2/21 6:50,2.1,14,2.3,16,1.6,13
2016/2/21 6:51,1.7,14,2,16,1.3,14
2016/2/21 6:52,1.5,14,1.7,16,2.2,2
2016/2/21 6:53,1.4,14,1.5,16,3.1,14
2016/2/21 6:54,1.2,14,1.3,16,2.4,14
2016/2/21 6:55,1.3,14,1.3,15,2.9,16
2016/2/21 6:56,1.1,14,1.2,15,1.6,15
2016/2/21 6:57,1.1,15,1.1,15,1.3,16
2016/2/21 6:58,1.1,15,1.1,15,1.9,15
2016/2/21 6:59,1,15,1.1,14,1.1,15
2016/2/21 7:00,1,15,1,14,1.1,11
2016/2/21 7:01,1.1,15,1.1,14,3.5,15
2016/2/21 7:02,1.4,14,1.4,14,5.6,15
2016/2/21 7:03,1.6,14,1.6,14,6.5,13
2016/2/21 7:04,1.8,14,1.8,14,4.8,15
2016/2/21 7:05,1.8,14,1.8,14,2.9,12
2016/2/21 7:06,1.9,13,1.9,14,3,12
2016/2/21 7:07,2,13,2,13,2.5,12
2016/2/21 7:08,2.1,13,2.1,13,3,1
2016/2/21 7:09,2.2,13,2.2,13,2.7,16
2016/2/21 7:10,2.3,14,2.3,14,3,15
2016/2/21 7:11,2.4,14,2.4,14,4.2,13
2016/2/21 7:12,2.2,14,2.3,14,2.6,14
2016/2/21 7:13,1.9,14,2.2,14,2.2,15
2016/2/21 7:14,1.7,14,1.9,14,1.8,15
2016/2/21 7:15,1.8,14,1.8,14,3,14
2016/2/21 7:16,1.7,14,1.8,14,2.7,15
2016/2/21 7:17,1.6,14,1.7,14,2.4,12
2016/2/21 7:18,1.6,14,1.7,14,2.2,14
2016/2/21 7:19,1.6,14,1.6,14,1.8,12
2016/2/21 7:20,1.6,14,1.6,14,2.4,12
2016/2/21 7:21,1.5,13,1.6,14,2.5,12
2016/2/21 7:22,1.4,13,1.5,14,1.6,11
2016/2/21 7:23,1.4,13,1.4,14,1,15
2016/2/21 7:24,1.3,13,1.4,14,1.6,16
2016/2/21 7:25,1.2,13,1.3,14,1.9,13
2016/2/21 7:26,1.2,13,1.2,14,2.5,13
2016/2/21 7:27,1.2,13,1.2,14,1.6,4
2016/2/21 7:28,1.2,13,1.2,14,3,4
2016/2/21 7:29,1.2,13,1.2,14,2.2,14
2016/2/21 7:30,1.2,14,1.2,14,2.4,15
2016/2/21 7:31,1.2,14,1.2,13,2.6,14
2016/2/21 7:32,1.2,14,1.2,13,1.9,13
2016/2/21 7:33,1.2,15,1.2,13,3,2
2016/2/21 7:34,1.3,15,1.3,13,2.4,3
2016/2/21 7:35,1.4,15,1.4,14,3.2,13
2016/2/21 7:36,1.4,15,1.4,14,1.9,16
2016/2/21 7:37,1.4,15,1.4,14,2.2,16
2016/2/21 7:38,1.4,15,1.4,14,3,1
2016/2/21 7:39,1.4,15,1.5,15,2.4,1
2016/2/21 7:40,1.4,15,1.4,15,2.2,15
2016/2/21 7:41,1.5,16,1.5,15,6.2,15
2016/2/21 7:42,1.8,16,1.8,16,7.1,14
2016/2/21 7:43,2.1,16,2.1,16,6.2,13
2016/2/21 7:44,2.1,16,2.2,16,6.3,1
2016/2/21 7:45,2.2,16,2.2,16,4.5,12
2016/2/21 7:46,2.3,15,2.3,16,4.7,13
2016/2/21 7:47,2.4,15,2.4,15,3.1,12
2016/2/21 7:48,2.4,15,2.4,15,3.1,13
2016/2/21 7:49,2.4,15,2.4,15,3,13
2016/2/21 7:50,2.4,14,2.4,15,2.4,14
2016/2/21 7:51,2.4,14,2.4,15,4.2,14
2016/2/21 7:52,2.1,14,2.4,15,3.9,14
2016/2/21 7:53,2,14,2.1,15,3,1
2016/2/21 7:54,2.1,14,2.1,15,4.2,7
2016/2/21 7:55,2,14,2.1,15,4.9,9
2016/2/21 7:56,1.9,13,2,15,2.7,13
2016/2/21 7:57,1.8,13,1.9,15,0.6,4
2016/2/21 7:58,1.7,12,1.7,15,2.7,5
2016/2/21 7:59,1.6,7,1.7,15,2,4
2016/2/21 8:00,1.6,6,1.7,14,1.8,5
2016/2/21 8:01,1.4,6,1.6,14,1.4,15
2016/2/21 8:02,1.4,6,1.4,14,3,15
2016/2/21 8:03,1.4,7,1.4,14,3.5,15
2016/2/21 8:04,1.2,11,1.4,14,2.1,13
2016/2/21 8:05,1.1,15,1.1,13,2.1,14
2016/2/21 8:06,1.1,15,1.1,13,2.2,14
2016/2/21 8:07,1.3,15,1.3,13,4.1,15
2016/2/21 8:08,1.3,14,1.3,12,1.8,14
2016/2/21 8:09,1.4,14,1.4,6,2.5,12
2016/2/21 8:10,1.4,14,1.4,6,2.7,11
2016/2/21 8:11,1.4,14,1.4,6,1.6,3
2016/2/21 8:12,1.3,14,1.4,6,1.4,5
2016/2/21 8:13,1.3,15,1.3,7,2.7,2
2016/2/21 8:14,1.4,15,1.4,14,3.1,16
2016/2/21 8:15,1.5,15,1.5,15,3.7,15
2016/2/21 8:16,1.5,15,1.5,15,3.1,16
2016/2/21 8:17,1.4,16,1.5,15,3.1,15
2016/2/21 8:18,1.6,16,1.6,16,5.2,1
2016/2/21 8:19,1.7,1,1.7,1,5.1,1
2016/2/21 8:20,1.9,1,1.9,1,4.9,16
2016/2/21 8:21,2,16,2,1,3.3,15
2016/2/21 8:22,2,16,2.1,16,1.5,16
2016/2/21 8:23,2.1,16,2.1,16,3.7,1
2016/2/21 8:24,2.2,16,2.2,16,4.5,1
2016/2/21 8:25,2.3,1,2.3,1,6.4,15
2016/2/21 8:26,2.4,1,2.4,1,5.7,15
2016/2/21 8:27,2.5,1,2.5,1,3.9,16
2016/2/21 8:28,2.4,16,2.5,1,3.1,1
2016/2/21 8:29,2.3,16,2.4,1,3.6,15
2016/2/21 8:30,2.3,16,2.3,1,4.8,1
2016/2/21 8:31,2.4,1,2.4,1,4.2,1
2016/2/21 8:32,2.5,1,2.5,1,3.6,2
2016/2/21 8:33,2.5,1,2.6,1,3.3,3
2016/2/21 8:34,2.3,2,2.5,1,1.5,5
2016/2/21 8:35,2,2,2.3,1,1.4,6
2016/2/21 8:36,1.8,3,2,1,1.4,5
2016/2/21 8:37,1.7,4,1.8,1,2.4,5
2016/2/21 8:38,1.7,4,1.7,1,3,5
2016/2/21 8:39,1.8,5,1.8,1,3.2,7
2016/2/21 8:40,1.7,5,1.8,1,3.2,14
2016/2/21 8:41,1.7,6,1.7,1,4.5,13
2016/2/21 8:42,1.5,7,1.7,1,2,9
2016/2/21 8:43,1.4,7,1.5,1,1.4,12
2016/2/21 8:44,1.4,8,1.4,2,1.3,14
2016/2/21 8:45,1.4,9,1.4,2,2.1,13
2016/2/21 8:46,1.3,10,1.4,3,1.5,1
2016/2/21 8:47,1.4,11,1.4,4,2.7,10
2016/2/21 8:48,1.3,11,1.4,4,2.2,10
2016/2/21 8:49,1.2,12,1.3,5,2.1,9
2016/2/21 8:50,1.1,12,1.2,5,1.5,10
2016/2/21 8:51,0.9,12,1.1,6,1.4,3
2016/2/21 8:52,0.9,12,0.9,7,1.9,15
2016/2/21 8:53,1,12,1,7,2.2,12
2016/2/21 8:54,1,12,1,8,1.3,13
2016/2/21 8:55,1,12,1,9,1.1,13
2016/2/21 8:56,1,12,1,11,1.3,11
2016/2/21 8:57,0.9,12,1,11,1.9,10
2016/2/21 8:58,0.8,11,0.9,12,0.8,9
2016/2/21 8:59,0.7,12,0.8,12,0.4,4
2016/2/21 9:00,0.7,11,0.7,12,1.6,8
2016/2/21 9:01,0.7,11,0.7,12,1.5,8
2016/2/21 9:02,0.6,11,0.7,12,1.3,4
2016/2/21 9:03,0.7,12,0.7,12,3.6,16
2016/2/21 9:04,0.8,12,0.8,12,4.3,14
2016/2/21 9:05,1,14,1,12,4.8,1
2016/2/21 9:06,1.2,16,1.2,16,3.9,2
2016/2/21 9:07,1.3,1,1.3,1,4.2,16
2016/2/21 9:08,1.5,1,1.5,1,6.2,1
2016/2/21 9:09,1.9,16,1.9,16,5.5,16
2016/2/21 9:10,1.9,16,1.9,16,3.6,16
2016/2/21 9:11,2.1,16,2.1,16,3.1,15
2016/2/21 9:12,2.3,16,2.3,16,2.9,14
2016/2/21 9:13,2.2,16,2.3,16,3,2
2016/2/21 9:14,2.2,16,2.2,16,3.8,16
2016/2/21 9:15,2.2,16,2.2,16,4.8,16
2016/2/21 9:16,2.1,16,2.2,16,4.4,16
2016/2/21 9:17,2.1,15,2.1,16,3.5,12
2016/2/21 9:18,2,15,2.1,16,3.7,9
2016/2/21 9:19,1.7,15,1.9,16,1.8,16
2016/2/21 9:20,1.6,15,1.7,16,2.4,12
2016/2/21 9:21,1.6,14,1.6,16,2.6,7
2016/2/21 9:22,1.5,13,1.5,16,4.4,8
2016/2/21 9:23,1.6,12,1.6,16,3.8,9
2016/2/21 9:24,1.7,10,1.7,16,3.8,6
2016/2/21 9:25,1.8,9,1.8,16,4.9,7
2016/2/21 9:26,1.9,8,1.9,16,4.2,8
2016/2/21 9:27,1.9,7,1.9,15,4.2,7
2016/2/21 9:28,1.9,7,1.9,15,3.7,9
2016/2/21 9:29,1.9,8,1.9,8,2.7,11
2016/2/21 9:30,1.9,7,1.9,8,0.8,16
2016/2/21 9:31,1.9,8,1.9,8,2.5,10
2016/2/21 9:32,1.9,8,1.9,8,2.2,9
2016/2/21 9:33,1.9,8,1.9,8,3,8
2016/2/21 9:34,1.7,8,1.9,8,3,6
2016/2/21 9:35,1.5,8,1.7,8,2.2,7
2016/2/21 9:36,1.4,8,1.5,8,2.4,7
2016/2/21 9:37,1.4,8,1.4,7,3.9,16
2016/2/21 9:38,1.5,7,1.5,7,4.1,16
2016/2/21 9:39,1.5,6,1.5,8,1.5,16
2016/2/21 9:40,1.5,7,1.5,7,2,13
2016/2/21 9:41,1.5,5,1.6,8,1.9,6
2016/2/21 9:42,1.4,5,1.5,8,1.6,8
2016/2/21 9:43,1.3,3,1.4,8,2.2,16
2016/2/21 9:44,1.3,2,1.3,8,3.3,16
2016/2/21 9:45,1.5,1,1.5,7,4.3,1
2016/2/21 9:46,1.5,1,1.5,7,3.5,2
2016/2/21 9:47,1.4,1,1.5,7,4.3,1
2016/2/21 9:48,1.4,16,1.4,7,2.7,14
2016/2/21 9:49,1.6,16,1.6,7,4.2,14
2016/2/21 9:50,1.7,16,1.7,16,5.7,14
2016/2/21 9:51,1.7,16,1.7,16,2.1,13
2016/2/21 9:52,1.8,15,1.8,15,3,14
2016/2/21 9:53,2.1,15,2.1,15,5.6,13
2016/2/21 9:54,2.2,15,2.3,15,5.6,13
2016/2/21 9:55,2.1,15,2.2,15,1.8,2
2016/2/21 9:56,2,14,2,15,2.9,10
2016/2/21 9:57,2.1,14,2.1,15,7.5,16
2016/2/21 9:58,2.3,14,2.3,15,5.5,16
2016/2/21 9:59,2.1,14,2.3,15,2.6,6
2016/2/21 10:00,2.1,14,2.1,15,3,10
2016/2/21 10:01,2.2,13,2.2,15,4.1,11
2016/2/21 10:02,2.2,13,2.2,15,3.1,13
2016/2/21 10:03,2.1,13,2.2,15,5.6,8
2016/2/21 10:04,2.1,12,2.2,14,6.3,9
2016/2/21 10:05,2.3,11,2.3,14,3.9,10
2016/2/21 10:06,2.6,11,2.6,11,7.1,10
2016/2/21 10:07,2.6,10,2.7,11,7,9
2016/2/21 10:08,2.8,10,2.8,10,7.5,11
2016/2/21 10:09,3.1,10,3.1,10,8.6,10
2016/2/21 10:10,3.5,10,3.5,10,7.2,10
2016/2/21 10:11,3.6,10,3.6,10,9.1,10
2016/2/21 10:12,3.8,10,3.8,10,8.2,15
2016/2/21 10:13,3.8,10,3.9,10,9,11
2016/2/21 10:14,3.7,10,3.8,10,3.7,5
2016/2/21 10:15,3.7,10,3.7,10,7.5,8
2016/2/21 10:16,3.5,10,3.7,10,5.8,10
2016/2/21 10:17,3.7,10,3.7,10,7.9,11
2016/2/21 10:18,3.7,10,3.7,10,9.4,10
2016/2/21 10:19,3.9,10,3.9,10,9.4,9
2016/2/21 10:20,3.8,10,3.9,10,6.7,11
2016/2/21 10:21,3.8,10,3.9,10,8.6,10
2016/2/21 10:22,4,10,4,10,6.2,10
2016/2/21 10:23,3.9,10,4,10,4.7,14
2016/2/21 10:24,3.9,11,3.9,10,2.7,13
2016/2/21 10:25,3.7,11,3.9,10,1.9,4
2016/2/21 10:26,3.5,11,3.7,10,2.4,16
2016/2/21 10:27,3.2,11,3.5,10,1.6,2
2016/2/21 10:28,2.8,11,3.1,10,1.6,12
2016/2/21 10:29,2.3,12,2.6,10,2.2,4
2016/2/21 10:30,1.9,14,2.2,10,2.2,13
2016/2/21 10:31,1.6,16,1.9,10,1.5,3
2016/2/21 10:32,1.4,1,1.5,10,6.9,1
2016/2/21 10:33,1.3,2,1.4,10,3.6,15
2016/2/21 10:34,1.2,2,1.3,11,2,2
2016/2/21 10:35,1.1,2,1.2,11,0.8,12
2016/2/21 10:36,1.1,3,1.1,11,1.6,11
2016/2/21 10:37,1.2,6,1.2,11,4.2,8
2016/2/21 10:38,1.2,4,1.2,11,2.2,8
2016/2/21 10:39,1.4,11,1.4,12,5,12
2016/2/21 10:40,1.4,7,1.4,14,3,8
2016/2/21 10:41,1.6,8,1.6,8,4.7,7
2016/2/21 10:42,1.6,8,1.6,8,4.7,7
2016/2/21 10:43,1.6,8,1.6,8,3.2,6
2016/2/21 10:44,1.7,8,1.7,7,3.7,8
2016/2/21 10:45,1.8,8,1.8,8,2.6,14
2016/2/21 10:46,1.9,8,1.9,8,3.3,14
2016/2/21 10:47,1.8,8,1.9,8,3.3,13
2016/2/21 10:48,1.8,8,1.8,8,1,15
2016/2/21 10:49,1.5,7,1.8,8,1.3,4
2016/2/21 10:50,1.5,7,1.5,8,2.7,1
2016/2/21 10:51,1.4,8,1.5,8,3.2,8
2016/2/21 10:52,1.3,10,1.4,8,5,11
2016/2/21 10:53,1.4,11,1.4,8,3.7,11
2016/2/21 10:54,1.5,11,1.5,8,4.8,11
2016/2/21 10:55,1.5,12,1.5,8,2.9,1